When you browse on this site, cookies collect data to enhance your experience and personalize the content and advertising you see.
Visit our Privacy Policy to learn more. By continuing to use the site, you agree to this use of cookies and data.
  • In Spain
  • List of Countries
  • For 7 days
  • Water Temperature
  • Weather Map
  • Weather Widgets
  • user-avatar
    Login

    Hourly Weather Kerns

    Today, 4 June, Thursday

    Time Temperature Precipitation Wind Pressure Humidity
    00:00 +15°C° 0 mm 5 mps 763 mmHg 89%
    01:00 +15°C° 0 mm 5 mps 763 mmHg 88%
    02:00 +14°C° 0 mm 5 mps 763 mmHg 88%
    03:00 +14°C° 0 mm 5 mps 762 mmHg 88%
    04:00 +15°C° 0 mm 5 mps 762 mmHg 89%
    05:00 +15°C° 0 mm 5 mps 763 mmHg 90%
    06:00 +15°C° 0 mm 5 mps 763 mmHg 91%
    07:00 +15°C° 0 mm 5 mps 763 mmHg 92%
    08:00 +17°C° 0 mm 5 mps 763 mmHg 82%
    09:00 +21°C° 0 mm 6 mps 764 mmHg 72%
    10:00 +23°C° 0 mm 6 mps 764 mmHg 62%
    11:00 +24°C° 0 mm 6 mps 763 mmHg 59%
    12:00 +24°C° 0 mm 6 mps 763 mmHg 57%
    13:00 +26°C° 0 mm 7 mps 763 mmHg 55%
    14:00 +24°C° 0 mm 7 mps 762 mmHg 59%
    15:00 +24°C° 0 mm 7 mps 762 mmHg 63%
    16:00 +23°C° 0 mm 7 mps 762 mmHg 67%
    17:00 +22°C° 0 mm 6 mps 762 mmHg 74%
    18:00 +20°C° 0 mm 5 mps 763 mmHg 81%
    19:00 +17°C° 0 mm 5 mps 763 mmHg 88%
    20:00 +17°C° 0 mm 5 mps 763 mmHg 90%
    21:00 +17°C° 0 mm 5 mps 764 mmHg 92%
    22:00 +17°C° 0 mm 5 mps 764 mmHg 93%
    23:00 +17°C° 0 mm 5 mps 763 mmHg 94%

    Tomorrow, 5 June, Friday

    Time Temperature Precipitation Wind Pressure Humidity
    00:00 +17°C° 0 mm 5 mps 763 mmHg 95%
    01:00 +19°C° 0 mm 5 mps 762 mmHg 96%
    02:00 +19°C° 0.1 mm 5 mps 762 mmHg 96%
    03:00 +19°C° 0.1 mm 5 mps 762 mmHg 96%
    04:00 +19°C° 0.1 mm 5 mps 761 mmHg 97%
    05:00 +20°C° 0.1 mm 5 mps 761 mmHg 97%
    06:00 +20°C° 0.1 mm 5 mps 762 mmHg 97%
    07:00 +21°C° 0.1 mm 5 mps 762 mmHg 97%
    08:00 +22°C° 0.2 mm 5 mps 762 mmHg 92%
    09:00 +23°C° 0.2 mm 6 mps 762 mmHg 87%
    10:00 +24°C° 0.2 mm 6 mps 763 mmHg 82%
    11:00 +24°C° 0.2 mm 6 mps 762 mmHg 81%
    12:00 +26°C° 0.2 mm 6 mps 762 mmHg 80%
    13:00 +26°C° 0.2 mm 6 mps 761 mmHg 79%
    14:00 +26°C° 0.1 mm 6 mps 761 mmHg 80%
    15:00 +24°C° 0.1 mm 6 mps 761 mmHg 81%
    16:00 +24°C° 0.1 mm 6 mps 761 mmHg 82%
    17:00 +23°C° 0.1 mm 6 mps 761 mmHg 86%
    18:00 +22°C° 0.1 mm 6 mps 761 mmHg 90%
    19:00 +21°C° 0.1 mm 5 mps 762 mmHg 94%
    20:00 +21°C° 0.1 mm 5 mps 762 mmHg 95%
    21:00 +21°C° 0.1 mm 5 mps 762 mmHg 95%
    22:00 +21°C° 0.1 mm 5 mps 763 mmHg 96%
    23:00 +21°C° 0 mm 5 mps 762 mmHg 96%

    Day after tomorrow, 6 June, Saturday

    Time Temperature Precipitation Wind Pressure Humidity
    00:00 +21°C° 0 mm 5 mps 762 mmHg 97%
    01:00 +20°C° 0 mm 4 mps 762 mmHg 97%
    02:00 +20°C° 0.1 mm 4 mps 761 mmHg 97%
    03:00 +20°C° 0.1 mm 4 mps 761 mmHg 97%
    04:00 +21°C° 0.1 mm 4 mps 761 mmHg 98%
    05:00 +21°C° 0.2 mm 5 mps 761 mmHg 97%
    06:00 +21°C° 0.2 mm 5 mps 761 mmHg 97%
    07:00 +21°C° 0.2 mm 5 mps 761 mmHg 97%
    08:00 +22°C° 0.2 mm 6 mps 761 mmHg 93%
    09:00 +23°C° 0.2 mm 6 mps 761 mmHg 89%
    10:00 +24°C° 0.2 mm 6 mps 762 mmHg 84%
    11:00 +24°C° 0.2 mm 6 mps 761 mmHg 82%
    12:00 +26°C° 0.2 mm 6 mps 760 mmHg 79%
    13:00 +26°C° 0.2 mm 6 mps 760 mmHg 77%
    14:00 +26°C° 0.2 mm 6 mps 760 mmHg 78%
    15:00 +24°C° 0.2 mm 6 mps 760 mmHg 80%
    16:00 +24°C° 0.2 mm 6 mps 759 mmHg 82%
    17:00 +23°C° 0.1 mm 5 mps 760 mmHg 87%
    18:00 +22°C° 0.1 mm 5 mps 760 mmHg 92%
    19:00 +21°C° 0.1 mm 5 mps 761 mmHg 96%
    20:00 +20°C° 0.1 mm 4 mps 761 mmHg 97%
    21:00 +20°C° 0.1 mm 4 mps 761 mmHg 97%
    22:00 +20°C° 0.1 mm 4 mps 762 mmHg 97%
    23:00 +20°C° 0.1 mm 4 mps 761 mmHg 98%

    7 June, Sunday

    Time Temperature Precipitation Wind Pressure Humidity
    00:00 +20°C° 0.1 mm 3 mps 761 mmHg 98%
    01:00 +20°C° 0.1 mm 3 mps 761 mmHg 98%
    02:00 +20°C° 0.1 mm 3 mps 760 mmHg 98%
    03:00 +20°C° 0.1 mm 3 mps 760 mmHg 98%
    04:00 +19°C° 0.1 mm 4 mps 760 mmHg 98%
    05:00 +19°C° 0.1 mm 4 mps 760 mmHg 98%
    06:00 +19°C° 0.1 mm 4 mps 760 mmHg 98%
    07:00 +19°C° 0.1 mm 3 mps 761 mmHg 98%
    08:00 +21°C° 0.2 mm 4 mps 761 mmHg 92%
    09:00 +23°C° 0.2 mm 4 mps 761 mmHg 86%
    10:00 +26°C° 0.2 mm 4 mps 761 mmHg 80%
    11:00 +26°C° 0.1 mm 4 mps 760 mmHg 75%
    12:00 +27°C° 0.1 mm 5 mps 760 mmHg 71%
    13:00 +28°C° 0.1 mm 5 mps 759 mmHg 66%
    14:00 +27°C° 0.1 mm 5 mps 759 mmHg 68%
    15:00 +27°C° 0.1 mm 5 mps 759 mmHg 71%
    16:00 +26°C° 0.1 mm 5 mps 759 mmHg 73%
    17:00 +25°C° 0.1 mm 5 mps 759 mmHg 81%
    18:00 +22°C° 0.1 mm 4 mps 760 mmHg 88%
    19:00 +21°C° 0.1 mm 4 mps 760 mmHg 96%
    20:00 +21°C° 0.3 mm 4 mps 761 mmHg 96%
    21:00 +21°C° 0.3 mm 4 mps 761 mmHg 97%
    22:00 +21°C° 0.3 mm 4 mps 761 mmHg 97%
    23:00 +21°C° 0.2 mm 4 mps 761 mmHg 97%

    8 June, Monday

    Time Temperature Precipitation Wind Pressure Humidity
    00:00 +21°C° 0.2 mm 5 mps 761 mmHg 97%
    01:00 +20°C° 0.2 mm 5 mps 760 mmHg 97%
    02:00 +20°C° 0.1 mm 5 mps 760 mmHg 98%
    03:00 +20°C° 0.1 mm 5 mps 760 mmHg 98%
    04:00 +21°C° 0.1 mm 4 mps 760 mmHg 98%
    05:00 +21°C° 0.1 mm 4 mps 760 mmHg 98%
    06:00 +21°C° 0.1 mm 5 mps 761 mmHg 98%
    07:00 +21°C° 0.1 mm 5 mps 761 mmHg 98%
    08:00 +22°C° 0.2 mm 5 mps 761 mmHg 93%
    09:00 +23°C° 0.2 mm 5 mps 762 mmHg 88%
    10:00 +24°C° 0.2 mm 6 mps 762 mmHg 84%
    11:00 +26°C° 0.3 mm 6 mps 761 mmHg 82%
    12:00 +26°C° 0.3 mm 6 mps 761 mmHg 80%
    13:00 +26°C° 0.3 mm 6 mps 761 mmHg 78%
    14:00 +26°C° 0.3 mm 6 mps 760 mmHg 81%
    15:00 +24°C° 0.3 mm 6 mps 760 mmHg 84%
    16:00 +23°C° 0.3 mm 6 mps 760 mmHg 88%
    17:00 +22°C° 0.2 mm 6 mps 761 mmHg 91%
    18:00 +22°C° 0.2 mm 5 mps 761 mmHg 94%
    19:00 +21°C° 0.2 mm 5 mps 762 mmHg 98%
    20:00 +21°C° 0.3 mm 6 mps 762 mmHg 97%
    21:00 +21°C° 0.3 mm 6 mps 762 mmHg 97%
    22:00 +22°C° 0.3 mm 6 mps 763 mmHg 97%
    23:00 +21°C° 0.2 mm 6 mps 762 mmHg 97%

    9 June, Tuesday

    Time Temperature Precipitation Wind Pressure Humidity
    00:00 +21°C° 0.2 mm 6 mps 762 mmHg 97%
    01:00 +21°C° 0.2 mm 6 mps 762 mmHg 97%
    02:00 +21°C° 0.2 mm 6 mps 761 mmHg 97%
    03:00 +21°C° 0.2 mm 6 mps 761 mmHg 97%
    04:00 +21°C° 0.2 mm 6 mps 761 mmHg 98%
    05:00 +21°C° 0.1 mm 6 mps 761 mmHg 97%
    06:00 +21°C° 0.1 mm 6 mps 762 mmHg 97%
    07:00 +21°C° 0.1 mm 5 mps 762 mmHg 97%
    08:00 +23°C° 0.2 mm 5 mps 762 mmHg 93%
    09:00 +25°C° 0.2 mm 5 mps 762 mmHg 89%
    10:00 +26°C° 0.2 mm 5 mps 763 mmHg 85%
    11:00 +26°C° 0.3 mm 5 mps 762 mmHg 84%
    12:00 +26°C° 0.3 mm 6 mps 762 mmHg 83%
    13:00 +27°C° 0.3 mm 6 mps 761 mmHg 83%
    14:00 +26°C° 0.4 mm 6 mps 761 mmHg 86%
    15:00 +24°C° 0.4 mm 6 mps 761 mmHg 89%
    16:00 +23°C° 0.4 mm 6 mps 761 mmHg 92%
    17:00 +23°C° 0.3 mm 6 mps 762 mmHg 93%
    18:00 +23°C° 0.3 mm 6 mps 762 mmHg 95%
    19:00 +22°C° 0.3 mm 6 mps 762 mmHg 97%
    20:00 +22°C° 0.2 mm 6 mps 763 mmHg 97%
    21:00 +22°C° 0.2 mm 6 mps 763 mmHg 97%
    22:00 +22°C° 0.2 mm 6 mps 763 mmHg 97%
    23:00 +22°C° 0.2 mm 6 mps 763 mmHg 97%
    Show more